Wind_Speed
13 16 17 16 17 19 19 18 18 17 18 18 19 20 20 19 19 18 17 17 18 18 19 20 20 21 21 21 22 22 22 22 21 21 22 22 22 22 22 23 24 25 25 25 24 23 24 25 25 25 24 24 25 24 24 24 23 24 23 23 24 23 22 20 16 17 21 20 22 24 23 24 26 26 27 28 29 31 32 33 33 32 31 29 28
15 17 17 16 16 18 18 18 17 17 17 18 20 20 20 18 18 18 19 19 19 19 20 20 21 20 21 22 22 22 22 21 21 21 22 22 23 23 24 24 25 26 26 26 26 25 25 26 26 26 25 25 26 25 24 24 23 24 24 23 24 23 21 21 20 18 20 21 22 25 24 23 25 26 25 26 27 27 28 30 30 31 31 29 27
16 17 17 16 16 17 18 18 18 18 18 19 20 20 19 18 18 19 20 20 20 20 21 21 21 20 21 22 22 22 21 22 22 22 22 23 24 24 25 25 26 27 28 28 27 26 26 27 27 26 25 25 26 24 24 24 23 24 25 23 23 23 21 21 21 20 22 22 21 23 24 23 25 26 25 26 28 28 28 29 27 27 27 27 27
17 17 17 17 17 17 18 18 18 19 20 19 19 19 19 19 19 20 21 21 21 21 21 21 21 22 22 22 21 21 22 22 23 23 23 23 25 26 28 28 29 29 29 28 28 26 26 27 27 26 25 25 26 25 24 24 23 23 23 21 20 21 19 18 20 21 22 23 21 21 22 22 24 26 25 25 27 27 29 31 30 31 30 29 28
18 18 18 18 18 18 19 20 20 20 20 19 19 19 20 20 21 21 21 21 21 21 21 22 22 23 22 21 22 22 23 23 23 24 24 25 26 28 29 30 30 29 29 28 27 27 27 27 27 26 25 26 27 27 25 25 24 23 22 21 19 19 19 18 20 21 22 24 23 21 20 20 22 23 23 23 25 27 28 29 30 31 32 33 32
18 18 18 18 19 19 20 20 20 19 19 19 20 20 21 22 22 21 20 20 21 21 23 23 23 23 22 22 24 25 25 25 25 26 26 27 28 29 29 30 30 30 30 29 29 28 28 28 28 27 27 27 28 28 27 27 27 27 26 26 25 24 24 24 23 24 24 26 26 23 21 20 20 22 21 20 22 23 22 23 24 25 27 29 30
18 18 18 18 19 20 19 19 19 19 20 20 21 21 21 21 21 20 20 21 22 23 24 24 24 23 24 25 27 27 27 27 27 27 27 28 29 30 31 31 31 31 30 30 30 29 29 29 30 29 29 29 30 30 30 29 29 30 30 30 29 27 27 27 25 24 25 25 25 24 23 20 19 20 20 19 21 22 21 21 22 23 24 25 27
19 19 19 19 20 19 19 20 21 22 22 22 21 21 21 21 21 21 22 23 24 25 24 24 24 25 27 28 28 28 28 28 28 29 29 30 30 31 32 32 32 32 31 31 31 30 30 30 30 31 31 31 31 31 32 32 31 32 32 31 30 29 27 26 24 24 24 25 25 25 24 22 21 21 21 19 19 20 20 20 21 23 23 24 27
18 19 19 19 20 21 21 22 23 23 23 22 22 22 22 23 23 24 25 25 25 25 25 25 27 28 30 30 30 29 28 29 30 30 30 31 31 32 32 31 31 32 31 31 31 30 30 31 32 32 31 31 31 31 32 33 32 33 33 31 30 29 28 26 25 24 24 22 22 23 21 20 21 21 20 19 19 20 21 21 21 22 23 24 25
19 19 20 21 22 22 23 23 22 22 22 22 23 24 24 25 26 26 27 27 27 27 27 27 28 30 31 31 31 30 30 31 32 30 29 30 31 32 32 31 31 31 29 29 29 29 30 30 29 28 27 28 29 30 31 32 32 33 34 32 31 31 30 28 27 27 25 22 22 23 18 18 23 25 24 25 25 25 24 23 23 24 22 20 21
19 19 20 21 22 22 22 22 22 22 23 24 25 25 25 26 26 27 27 28 28 28 28 29 30 30 31 31 31 31 32 32 31 29 29 31 32 32 32 32 31 30 29 28 28 28 29 28 28 27 27 28 29 30 31 31 32 33 34 34 34 34 33 31 29 29 28 25 26 26 21 20 27 29 27 28 27 25 26 25 24 23 20 15 14
19 20 20 21 22 23 23 22 23 24 25 26 25 25 25 26 26 27 27 27 28 28 29 30 31 31 31 32 32 32 33 33 31 29 31 32 31 31 33 32 30 28 27 26 27 29 30 30 30 30 30 29 30 31 32 32 32 33 34 35 36 36 36 35 33 31 29 27 27 28 26 26 31 32 31 30 29 29 29 28 26 25 23 18 16
20 21 21 22 24 24 24 24 25 26 26 26 25 25 25 25 25 26 27 28 28 28 30 30 31 31 31 32 33 33 34 35 32 31 33 32 30 31 34 33 30 27 26 25 26 28 28 29 30 30 30 28 28 29 30 32 32 33 34 35 35 36 37 38 38 36 34 32 29 29 30 30 31 32 32 30 29 30 29 29 29 28 26 24 24
20 21 23 24 25 24 25 25 26 26 26 25 25 25 25 26 27 28 29 29 29 30 30 30 30 31 32 33 34 34 35 35 33 32 34 33 31 31 32 32 29 27 27 26 26 27 27 28 29 29 29 29 29 29 30 32 33 34 34 35 36 37 37 37 39 39 39 37 33 32 34 34 33 33 32 30 30 31 30 30 31 31 32 32 34
21 22 23 24 24 24 25 25 26 26 26 26 26 26 27 28 29 29 29 29 30 30 30 30 30 31 32 33 34 35 35 34 32 33 35 33 31 31 32 32 30 29 29 29 28 28 27 27 27 28 30 31 31 30 31 32 33 34 34 34 35 36 36 37 38 39 40 41 39 39 39 39 40 41 40 38 37 38 38 38 37 36 36 35 34
22 23 24 24 24 24 25 26 26 27 27 27 28 28 29 29 29 30 30 29 29 29 29 29 30 31 33 33 33 35 36 34 32 33 35 33 31 33 34 33 31 30 30 29 29 28 28 27 28 29 30 31 31 30 31 32 32 32 32 33 34 34 35 37 38 38 40 41 42 43 43 44 44 44 45 44 42 44 43 40 38 35 31 26 24
24 24 24 24 25 25 25 26 27 28 28 28 28 29 29 29 29 29 29 29 29 28 29 29 30 31 33 33 33 35 36 34 31 33 34 33 33 34 34 32 30 29 29 30 30 29 29 28 28 28 28 29 30 31 32 33 32 32 32 32 33 33 34 37 38 39 41 41 41 42 41 42 42 42 44 43 42 42 39 33 32 32 24 15 13
25 24 25 25 26 26 26 26 27 28 28 29 29 29 29 29 30 29 28 29 29 29 29 30 30 31 32 33 33 33 35 33 31 32 34 33 31 33 33 30 28 29 30 30 29 28 28 28 26 26 27 28 29 31 33 33 33 31 31 31 32 32 33 34 35 36 37 38 38 37 36 37 37 37 38 37 35 34 32 29 32 31 23 15 14
25 25 26 26 26 26 26 27 27 28 29 29 29 30 30 30 30 29 28 28 29 29 29 29 30 31 32 33 33 33 35 35 33 33 34 32 29 31 32 29 27 28 28 27 26 27 27 26 23 22 24 26 28 31 33 34 33 32 31 30 29 28 27 28 28 29 31 32 34 35 35 36 36 35 35 36 35 35 33 32 32 29 25 23 23
25 26 26 26 26 27 26 27 27 28 29 30 30 30 31 31 30 29 29 29 29 30 30 29 30 32 33 33 34 33 34 35 34 33 33 31 28 29 31 28 25 25 24 23 25 25 22 20 19 20 23 26 30 33 35 36 36 34 31 26 23 24 26 27 27 27 27 27 28 29 30 32 34 34 35 36 37 37 38 36 32 30 28 28 27
25 25 26 27 27 27 27 27 28 29 30 30 30 30 30 31 31 30 30 30 29 30 30 30 30 31 33 33 34 34 34 34 33 32 31 31 29 29 31 29 24 23 24 24 23 20 17 18 22 24 25 27 30 33 35 37 36 31 26 22 22 25 26 24 23 22 23 23 24 26 28 30 32 33 34 35 36 37 38 38 36 34 32 30 26
25 25 26 27 27 28 28 28 29 30 30 30 30 31 31 31 31 31 30 30 29 30 30 29 29 30 32 33 33 34 33 32 31 30 29 29 29 29 30 29 26 25 23 19 17 17 20 23 26 27 26 27 31 33 34 33 29 25 24 25 28 28 24 20 18 19 20 22 23 25 26 27 29 30 32 33 35 37 38 38 38 37 37 37 33
25 25 26 27 28 28 29 29 30 30 30 30 30 31 32 31 31 31 30 29 29 28 29 28 28 29 30 31 32 33 32 30 30 29 27 27 28 29 29 29 29 26 22 18 18 22 25 27 28 29 29 30 32 32 29 26 24 24 27 29 29 28 25 22 20 19 19 20 21 24 26 27 28 30 31 33 35 37 38 38 39 39 38 38 38
25 26 27 27 28 29 29 29 30 30 30 30 30 31 31 31 31 30 29 28 27 26 26 26 25 25 27 29 30 31 31 29 29 29 27 26 27 29 30 30 29 27 25 24 25 26 28 29 30 31 31 31 31 28 26 27 28 29 29 29 28 28 26 25 23 22 20 19 19 21 25 26 27 28 30 31 34 36 38 38 38 39 39 39 38
25 27 27 28 28 28 28 29 30 30 30 30 29 30 31 30 30 29 28 26 25 25 25 24 23 24 25 26 29 31 31 30 29 29 28 27 27 29 30 30 29 29 28 28 28 28 29 31 32 31 30 30 29 27 28 30 31 30 28 27 27 27 26 25 24 21 19 18 18 19 22 24 25 26 27 30 32 34 35 35 36 36 37 38 38
26 27 27 28 28 28 28 29 30 30 30 29 29 29 29 29 29 29 28 26 24 24 24 23 23 23 24 26 29 30 30 29 29 30 30 29 30 31 31 30 31 31 30 29 29 29 30 31 31 31 29 26 24 25 28 29 28 27 26 25 25 25 24 23 22 20 19 19 19 19 21 23 25 27 30 31 32 33 32 32 32 33 33 33 32
26 27 27 28 28 28 28 29 29 28 28 27 27 28 28 28 27 28 27 25 24 23 23 23 23 23 25 27 28 29 29 29 28 29 30 31 32 32 32 32 33 33 32 30 29 29 30 31 30 28 26 23 23 25 26 26 25 24 24 23 22 22 21 20 20 20 20 19 20 21 24 26 28 29 31 31 30 31 31 30 30 30 31 31 28
26 27 28 28 28 28 28 28 28 28 27 27 26 26 27 26 26 27 28 27 26 25 25 25 25 26 27 28 27 26 26 27 28 30 32 32 32 32 31 31 31 30 29 28 27 27 29 28 25 22 21 21 23 24 23 22 21 21 20 20 20 20 19 19 19 19 19 19 21 23 25 25 25 25 26 26 26 27 29 29 29 30 31 28 23
26 27 28 28 28 28 27 27 27 27 27 27 26 26 27 26 27 29 31 30 29 29 29 28 29 30 30 28 26 25 25 26 28 29 31 31 30 28 27 26 26 25 24 25 26 27 25 22 18 17 17 19 20 20 20 19 19 19 18 18 18 18 19 19 18 18 19 19 20 21 21 22 22 22 22 23 24 24 25 26 28 30 29 25 20
25 27 27 27 27 26 26 26 26 25 26 26 26 27 28 27 26 28 30 29 29 29 30 30 31 30 27 25 23 23 24 26 26 26 27 27 26 24 23 23 23 23 25 27 27 23 18 15 14 16 16 16 16 17 17 17 18 18 18 16 16 17 17 17 16 17 19 19 19 19 19 20 20 21 21 21 22 22 23 25 27 28 25 21 19
25 26 26 26 27 26 25 26 26 25 25 26 26 26 27 27 27 27 27 28 28 29 29 30 31 30 27 26 24 23 22 23 23 24 26 27 25 22 22 23 24 25 25 23 17 13 12 13 15 15 14 14 14 15 16 17 17 18 17 17 17 16 16 16 17 18 19 20 19 18 18 18 20 21 21 21 21 21 23 25 24 26 24 21 20
25 27 27 27 27 26 26 26 25 25 25 25 25 24 24 25 27 28 26 25 26 28 29 30 30 30 29 28 28 26 24 22 23 24 25 24 22 21 22 24 24 21 18 15 11 11 12 13 14 13 13 13 15 15 16 17 17 17 17 17 17 16 16 17 19 19 20 20 18 18 18 19 19 20 21 21 21 19 21 22 20 23 23 21 21
25 27 28 27 27 26 25 25 25 25 25 24 24 24 23 22 23 25 26 26 26 28 29 28 28 27 27 28 28 29 28 27 26 26 24 22 22 22 22 20 18 15 13 13 13 14 14 13 13 13 13 14 15 16 16 16 17 17 17 16 17 18 19 20 20 20 19 18 17 19 19 19 19 20 20 20 20 18 20 21 18 20 20 17 18
25 27 28 27 27 26 26 25 25 25 25 25 24 24 23 23 23 23 24 24 25 27 29 28 25 24 24 24 26 27 28 28 27 26 25 24 23 22 20 18 17 16 15 13 13 13 13 13 14 14 14 15 16 16 17 17 17 17 17 17 17 19 20 20 20 19 17 17 18 20 19 19 19 20 19 19 20 19 18 18 15 13 16 15 15
25 27 27 26 26 26 26 25 25 25 25 25 24 24 24 24 24 23 23 23 23 24 27 28 27 24 22 22 23 24 25 25 25 25 26 26 23 19 18 19 20 20 17 15 14 14 14 14 14 14 15 16 17 17 17 18 17 17 18 18 18 19 19 20 20 18 17 18 19 19 19 19 20 20 19 20 20 19 17 17 16 11 12 15 16
25 27 27 26 25 26 26 26 25 25 25 25 25 25 25 24 24 24 24 24 24 24 26 28 28 26 24 22 21 22 22 23 24 25 26 25 21 17 17 18 19 19 19 18 17 16 15 15 15 15 16 16 17 17 18 18 18 18 18 18 18 19 20 20 19 18 18 19 19 19 20 21 21 21 20 19 18 18 17 16 16 15 11 12 16
25 26 27 27 27 26 27 26 25 25 25 25 24 25 24 24 24 24 24 24 24 24 25 26 26 25 24 23 22 22 22 23 24 24 25 24 21 19 17 17 16 17 19 19 19 18 18 17 16 16 17 17 17 18 18 18 19 19 18 17 18 19 19 18 18 18 19 20 20 20 21 22 22 21 20 19 18 18 18 17 16 16 15 12 12
25 26 26 26 26 25 26 26 26 24 24 24 24 24 24 24 24 24 23 23 23 23 24 24 24 23 23 24 23 23 24 24 24 23 24 23 22 20 18 16 16 17 19 19 19 20 19 18 17 17 17 17 17 18 18 18 18 18 18 18 18 18 18 18 18 19 19 19 20 20 21 22 23 22 20 19 18 18 18 18 17 16 16 15 11
26 26 26 25 25 24 25 25 25 24 24 24 24 24 24 23 23 23 23 22 22 23 23 23 23 22 23 23 23 23 23 23 22 21 22 21 20 19 17 16 17 18 19 19 20 20 20 19 19 18 17 17 18 18 18 18 18 18 18 18 18 18 18 18 19 19 19 19 19 20 22 22 23 22 20 18 18 18 18 18 17 15 14 14 13
26 27 27 26 25 24 24 24 24 24 24 24 24 23 23 23 23 23 22 22 22 22 22 22 23 24 24 23 22 21 21 21 20 20 20 19 19 19 18 18 19 20 20 20 20 20 20 20 19 18 18 19 19 18 18 18 18 18 18 18 18 18 18 18 19 20 19 19 19 21 22 22 21 21 20 18 18 18 18 18 17 16 14 13 13
27 27 27 25 24 24 24 24 24 25 25 25 24 24 23 23 23 23 23 22 22 22 22 23 24 25 25 22 21 20 21 21 20 20 20 20 21 21 20 21 21 21 21 20 20 20 20 20 19 18 19 20 19 18 18 19 18 18 18 18 17 17 18 19 19 19 18 18 20 22 22 21 20 19 19 19 19 19 18 18 17 16 15 14 13
26 26 26 25 24 24 24 25 25 26 25 25 25 24 24 24 23 23 22 22 22 22 23 23 24 25 25 22 20 20 21 21 21 21 21 21 21 21 22 23 23 21 20 20 20 20 21 20 19 19 20 20 19 18 18 19 19 19 18 18 17 18 18 19 19 18 17 19 21 22 22 21 20 19 19 19 20 20 19 18 18 17 15 15 14
25 25 25 25 25 24 24 26 26 26 25 25 25 25 24 24 24 23 22 22 23 23 23 23 24 24 24 23 21 20 20 20 20 20 21 21 21 21 22 23 22 21 20 20 20 19 19 19 19 19 20 20 19 19 19 19 19 18 18 18 18 18 18 18 18 17 18 20 21 22 21 21 20 20 20 19 19 20 19 19 18 18 16 15 15
24 24 25 25 25 25 25 25 25 25 26 26 26 26 25 24 23 23 22 22 23 23 23 23 23 23 23 23 22 20 20 19 19 20 20 20 21 21 22 22 22 21 20 20 19 18 18 19 19 20 20 20 19 19 18 18 17 17 18 18 18 18 17 18 17 17 18 20 21 22 21 21 21 20 20 20 19 19 19 19 18 18 17 16 16
23 24 24 25 25 25 26 25 25 25 25 25 25 25 24 23 23 23 22 22 22 22 22 23 23 22 22 22 21 20 20 20 20 20 20 20 20 21 22 22 22 21 20 20 19 18 18 18 19 19 20 20 19 19 18 17 17 17 17 17 17 18 18 18 17 17 17 19 21 21 21 22 22 21 20 20 19 19 19 19 19 18 17 16 16
22 22 23 24 25 26 26 25 25 24 24 23 23 24 23 23 22 22 22 23 22 22 22 22 22 22 22 21 20 20 20 20 20 19 19 19 20 21 22 21 20 20 20 19 19 18 18 18 18 18 19 19 19 19 19 18 18 18 17 15 15 17 17 16 16 17 17 18 20 21 21 22 22 21 20 20 19 19 19 19 18 18 17 16 17
21 23 24 25 25 26 26 25 24 23 23 23 23 23 23 23 23 22 23 23 23 23 22 22 21 21 21 21 20 20 20 20 20 19 19 19 20 20 21 20 20 19 19 19 18 18 17 17 17 18 18 19 19 19 19 18 17 17 16 14 14 15 15 15 16 17 17 17 18 19 20 21 22 22 21 20 20 19 19 19 18 18 17 16 17
23 24 25 25 25 24 24 24 23 23 23 23 23 23 23 23 23 23 23 22 22 22 22 21 21 21 21 20 20 20 20 20 19 19 18 18 19 19 20 20 19 18 18 18 18 18 17 16 17 17 18 19 19 19 18 18 17 15 14 14 14 14 14 15 16 17 17 17 18 19 19 21 22 22 21 20 20 20 19 19 19 18 17 17 18
25 25 25 25 24 23 23 23 23 23 23 23 23 23 23 23 23 23 22 22 22 21 21 21 21 21 21 20 20 20 20 19 19 18 18 18 18 19 19 19 18 17 17 18 18 18 17 16 16 17 18 18 18 17 17 17 16 15 15 14 14 13 14 15 16 16 15 16 18 18 19 20 21 21 20 20 20 20 19 18 18 18 17 18 19
25 25 24 24 24 23 23 23 23 23 23 23 23 23 23 22 23 22 22 22 22 21 21 21 21 21 21 20 20 19 19 19 18 18 18 17 17 18 17 17 16 16 17 18 18 17 17 16 17 17 18 18 17 17 17 16 16 16 15 14 13 13 14 15 15 14 14 15 17 18 18 19 19 19 19 20 20 19 18 17 17 18 18 18 19
25 24 24 24 24 23 23 23 23 23 23 23 22 23 22 22 22 22 22 22 22 22 22 21 21 21 21 20 20 19 19 19 19 18 18 17 17 17 16 16 16 16 17 17 17 17 17 17 17 18 18 18 17 17 17 16 16 15 14 13 13 13 14 14 15 15 15 15 16 16 17 17 17 18 19 19 19 18 17 16 17 18 18 17 17
Wind_Direction
305 309 314 313 301 293 290 290 294 299 304 304 300 300 301 301 301 302 302 299 297 296 298 302 306 306 305 304 303 305 304 303 303 303 303 301 300 299 299 299 297 296 295 294 293 291 290 289 289 289 290 289 288 288 288 288 289 287 287 287 284 282 281 277 276 283 285 281 280 282 284 286 286 283 285 288 286 285 285 284 284 285 285 285 283
308 308 308 306 300 296 292 290 293 298 302 303 300 300 300 298 297 298 300 299 297 297 299 302 304 303 301 301 302 303 302 301 301 301 300 298 296 296 297 296 296 295 294 292 291 291 289 288 288 288 289 287 286 286 286 286 287 286 285 284 282 279 277 275 274 279 285 285 283 284 286 287 285 282 282 284 284 285 286 285 284 283 281 280 278
308 305 302 299 297 296 294 292 294 297 301 302 300 298 297 295 295 296 298 298 296 297 299 301 302 301 300 301 301 300 300 299 299 299 297 296 295 294 294 294 293 292 291 290 290 289 288 287 288 289 289 287 285 285 285 284 283 283 282 280 279 277 275 272 272 275 283 287 285 285 287 286 283 282 283 281 281 282 283 283 283 281 278 276 275
308 301 296 295 295 295 294 293 294 298 301 301 298 296 295 294 294 297 297 297 297 297 298 299 300 301 301 301 301 300 299 298 297 296 294 293 292 292 292 292 291 289 288 287 287 287 287 286 287 288 288 286 285 284 284 283 281 280 279 277 275 275 274 269 268 272 279 285 285 283 285 286 283 283 283 282 281 280 279 279 279 279 277 276 276
305 296 292 293 294 293 292 293 295 298 299 297 295 295 295 295 296 298 297 295 295 295 296 298 300 301 300 300 300 299 298 298 296 294 292 291 290 290 291 291 290 288 286 285 285 285 284 284 284 285 285 283 283 283 282 280 279 277 275 273 271 271 272 270 270 273 276 281 284 285 284 285 285 284 283 282 282 281 278 277 277 277 276 275 274
299 291 289 290 292 292 293 294 295 296 297 296 296 296 295 296 297 296 294 292 293 294 297 299 300 298 297 298 299 298 297 296 294 293 292 291 291 290 290 289 287 286 285 284 284 283 282 282 282 282 281 280 279 279 279 278 277 275 271 270 269 268 269 269 270 272 274 276 279 281 281 281 281 281 280 280 280 281 282 284 283 280 277 274 272
292 287 287 288 289 291 292 292 292 294 296 297 297 296 296 296 294 292 290 291 293 296 298 299 297 295 294 297 298 297 297 296 295 294 292 292 291 290 289 288 287 286 286 285 285 285 284 282 282 282 279 278 277 277 277 275 273 272 270 269 268 266 266 267 267 267 269 272 274 276 278 278 276 276 278 278 277 278 284 288 287 284 280 276 273
288 286 287 286 286 286 287 290 292 294 295 295 294 294 294 293 291 289 290 292 295 296 296 296 295 293 294 296 298 297 296 295 294 294 293 293 292 290 289 288 288 287 287 287 287 286 285 284 283 282 280 278 277 276 276 274 272 271 270 268 266 264 263 263 264 263 265 267 268 271 273 273 271 272 275 275 271 272 276 277 277 280 282 278 273
287 288 287 284 283 284 288 292 294 293 291 289 291 291 292 292 291 291 293 294 295 295 294 294 294 294 295 296 297 296 294 293 293 293 293 293 291 289 288 287 286 286 286 287 286 283 284 284 282 282 281 280 280 280 278 275 270 267 268 267 263 261 260 259 259 259 261 262 263 265 267 266 265 264 265 264 263 268 274 275 275 279 282 280 275
289 290 288 285 286 289 292 293 292 289 287 288 290 290 290 290 292 293 294 294 294 294 294 295 295 295 296 296 297 296 294 293 294 292 288 286 285 284 285 285 284 284 284 284 283 282 283 283 282 282 282 279 278 277 275 272 267 265 265 264 260 257 254 252 251 252 253 254 256 259 260 259 260 260 259 261 264 268 272 272 272 275 278 280 280
289 289 289 290 292 293 293 292 290 289 289 291 291 289 288 289 291 293 293 292 293 293 294 295 296 296 296 296 296 295 294 295 294 291 287 287 287 285 284 283 284 285 284 282 281 282 283 283 282 282 279 276 275 274 273 271 270 269 267 266 263 260 255 250 247 246 246 247 251 253 252 254 259 259 259 261 263 264 266 265 266 270 272 273 277
287 288 289 293 295 294 292 292 292 292 292 292 291 289 288 289 290 291 291 291 291 291 293 295 297 297 296 296 296 295 295 296 294 290 290 292 294 292 289 288 287 286 284 281 280 282 283 283 283 281 278 276 275 274 274 273 272 270 269 269 268 266 263 259 255 250 245 244 246 248 248 252 258 259 258 259 260 260 261 261 260 263 264 262 263
286 286 289 293 295 293 292 292 293 293 292 292 291 290 289 288 289 290 291 291 290 291 293 295 296 296 295 295 295 295 295 297 295 291 292 296 298 299 297 296 294 290 287 284 283 283 283 283 283 282 281 279 276 275 274 274 273 272 271 271 269 269 268 267 265 263 259 254 250 248 248 250 255 257 258 258 259 258 257 256 256 257 257 256 256
283 285 290 293 294 293 292 293 293 292 292 291 291 289 288 289 290 291 291 291 291 292 293 294 294 294 294 295 294 294 295 296 294 292 294 297 300 300 300 300 298 294 291 289 286 284 283 282 282 282 283 282 279 277 275 274 274 274 272 272 270 269 269 268 269 270 270 268 264 261 259 258 257 260 261 260 256 255 253 253 254 253 253 255 257
283 287 291 293 292 291 292 294 294 292 291 291 290 289 289 289 290 291 291 291 290 291 291 291 291 292 293 294 293 292 294 294 293 293 295 298 300 302 301 300 299 297 296 295 291 288 285 282 280 280 281 282 281 278 276 274 273 271 270 270 269 269 268 268 268 268 269 269 268 267 265 264 263 263 264 261 257 255 254 254 255 255 256 259 260
286 289 290 290 290 290 292 294 293 292 292 291 290 289 289 289 291 292 291 290 289 288 288 288 289 291 292 293 292 291 293 294 293 294 297 299 301 303 302 300 300 298 297 295 293 291 288 284 282 281 280 281 281 280 278 276 273 272 271 270 270 270 269 269 269 268 266 266 266 266 267 267 266 265 265 262 258 256 256 254 254 254 254 256 256
288 288 287 287 288 290 293 294 293 292 292 291 290 289 289 290 292 292 290 288 287 286 285 286 289 290 291 291 291 291 293 295 294 294 297 300 301 301 301 299 298 296 295 295 294 291 289 287 283 280 278 279 281 282 281 279 278 277 275 274 273 272 272 274 274 273 272 270 267 266 265 266 266 266 266 264 259 256 252 248 248 247 242 243 248
287 286 286 288 290 291 293 293 291 291 291 291 290 290 291 291 292 291 289 286 285 285 286 287 289 289 289 290 290 290 292 293 293 293 297 301 302 301 300 297 296 295 294 294 292 290 289 287 282 277 277 279 280 281 282 283 283 281 279 278 276 274 274 275 274 275 276 277 276 275 275 276 276 276 276 274 271 267 258 249 247 244 235 232 240
287 288 289 292 292 291 291 291 290 290 290 290 290 291 291 292 292 291 288 286 285 286 287 288 288 288 289 290 291 290 291 293 294 296 299 303 304 301 299 295 293 291 289 289 290 289 287 284 281 280 282 283 284 285 287 288 288 286 285 284 282 280 280 281 280 279 280 280 281 283 285 285 285 284 284 284 283 281 274 265 255 244 235 235 238
291 292 294 294 292 290 290 289 289 289 290 290 291 291 291 292 291 290 288 287 286 286 287 287 286 287 289 290 291 291 291 293 296 297 300 303 302 299 297 294 290 287 286 287 287 285 284 286 291 294 292 290 289 289 289 289 289 290 291 292 291 290 291 291 289 288 287 285 285 285 286 287 286 285 285 284 283 282 279 274 263 249 239 237 236
295 295 295 294 291 290 290 289 290 290 290 291 291 290 290 291 290 289 289 288 287 287 286 286 285 286 288 290 291 292 292 294 296 298 299 301 301 299 297 295 290 287 289 288 285 287 295 302 303 302 298 292 289 288 287 288 292 297 303 303 297 295 299 301 300 299 299 297 295 291 287 285 284 283 283 281 279 278 276 273 267 255 244 238 235
297 296 295 293 291 290 290 291 291 291 291 291 291 290 291 291 290 290 289 287 287 285 285 285 284 285 288 289 290 292 293 295 297 297 296 297 298 298 297 295 292 292 295 295 295 301 305 303 302 302 298 291 286 286 288 293 301 311 313 308 303 307 316 321 315 309 305 300 295 289 284 282 281 281 280 278 277 276 273 269 265 258 249 242 238
297 296 294 292 290 290 291 292 292 292 291 292 291 291 292 292 291 290 288 287 286 284 283 284 283 283 286 288 290 292 293 294 296 296 294 294 295 296 296 295 297 302 308 310 307 306 304 301 301 300 295 290 290 293 298 307 318 321 316 314 316 321 326 324 317 311 304 297 289 282 279 278 277 277 277 277 275 274 271 268 264 259 254 248 244
297 294 293 291 291 291 292 292 292 292 292 292 291 291 292 292 291 290 288 285 283 281 281 282 281 281 283 286 288 291 293 294 295 296 294 291 292 294 296 297 302 309 313 309 305 303 300 298 297 297 296 298 302 307 314 320 323 320 317 319 320 320 320 319 316 313 304 294 284 278 277 277 275 274 275 276 277 276 273 269 265 260 256 253 250
296 294 293 292 291 292 292 292 292 292 292 292 291 290 291 291 290 289 288 284 281 279 280 281 279 279 280 282 285 289 292 293 294 295 294 290 289 292 295 298 302 306 305 301 299 298 297 296 298 301 305 308 310 314 316 317 317 316 316 316 314 314 315 315 313 309 301 292 285 281 279 279 277 276 278 281 283 282 275 268 263 258 255 254 252
295 293 292 291 292 292 293 293 292 292 292 292 290 289 289 288 287 287 286 283 280 279 280 280 280 279 279 280 282 286 289 290 290 292 293 291 289 290 291 293 296 298 297 293 292 292 294 296 299 301 302 303 305 307 309 309 309 308 309 310 311 312 312 311 308 303 296 290 288 285 285 287 287 286 285 286 285 281 274 264 257 252 249 247 247
293 292 291 292 293 293 292 292 292 291 291 291 290 289 287 285 284 284 284 283 282 282 282 281 280 277 276 278 279 282 285 286 287 289 290 290 289 288 287 288 291 292 290 286 285 287 289 291 291 291 291 294 298 302 303 303 303 305 307 310 311 310 308 306 302 297 292 290 291 293 295 296 293 289 287 284 280 277 272 261 250 245 243 240 238
292 292 292 293 293 292 292 291 290 290 290 290 289 287 286 285 283 282 283 284 284 283 281 279 277 275 275 276 278 280 281 282 284 287 289 287 285 283 283 283 284 283 282 281 283 285 287 287 284 284 289 297 302 303 303 303 304 307 311 311 310 309 308 305 301 298 296 295 296 298 298 296 292 289 287 282 277 277 275 263 248 241 239 234 230
293 292 293 293 292 292 291 289 289 289 290 290 289 287 286 286 284 284 285 286 285 282 279 276 275 275 273 273 274 275 276 280 286 291 291 288 284 282 283 284 284 283 283 287 290 290 288 286 285 291 301 307 306 305 306 308 310 312 313 312 311 310 309 307 305 304 304 302 301 300 298 296 295 292 289 284 279 280 281 270 251 240 236 231 227
294 293 293 292 291 292 291 290 290 289 289 290 290 290 289 288 285 284 287 289 288 285 282 280 280 282 283 282 281 278 277 285 294 298 296 293 294 296 296 294 292 292 292 293 293 291 289 292 298 304 308 308 305 306 310 313 313 313 312 312 311 311 310 308 309 310 309 306 303 300 300 300 299 295 292 290 287 289 292 280 255 238 231 226 224
292 291 292 291 291 292 291 290 291 290 290 290 290 290 291 292 290 289 289 290 290 289 288 289 291 295 299 301 301 297 294 297 303 303 300 302 306 308 305 300 298 296 296 297 297 297 300 304 306 306 307 307 308 311 314 315 313 311 311 312 312 311 310 310 311 312 311 305 301 302 305 303 300 297 295 294 293 294 298 288 259 232 223 221 220
290 289 291 291 292 292 291 291 291 291 291 291 290 289 290 292 293 294 293 292 291 292 293 296 298 301 303 303 304 305 305 306 307 307 309 310 310 311 309 306 302 302 303 307 311 314 311 308 306 308 311 312 313 315 317 316 314 311 310 310 311 312 311 311 313 313 310 305 304 309 311 306 302 301 298 297 298 298 299 291 259 225 216 218 216
291 290 290 291 292 292 291 291 291 290 290 290 290 289 289 288 290 294 296 296 294 294 294 296 299 302 303 303 305 307 310 311 313 315 316 312 309 314 317 311 307 313 323 323 317 314 313 310 309 312 314 315 316 318 318 316 314 311 309 307 309 311 312 313 315 314 309 308 311 315 313 309 307 306 302 301 301 298 298 295 265 226 213 214 212
294 292 291 291 291 291 291 291 291 290 290 290 289 288 287 286 287 291 295 298 298 297 298 298 298 299 300 300 302 305 308 311 314 315 312 309 311 320 322 312 305 309 316 319 317 315 314 312 310 310 313 315 317 317 316 315 314 311 309 308 309 311 313 316 317 314 310 314 318 317 315 312 310 310 308 308 307 302 301 304 289 239 212 209 210
297 295 294 293 291 290 290 290 290 290 290 289 288 288 287 287 288 288 290 293 294 295 297 298 299 298 297 295 296 299 302 305 308 307 304 305 313 324 323 318 317 318 316 318 320 317 313 309 307 307 310 313 315 315 315 315 314 311 309 310 311 313 315 316 315 313 314 319 319 317 316 316 315 313 312 311 310 307 305 311 314 288 235 214 211
299 298 297 295 293 292 291 291 290 289 289 289 288 288 287 287 287 287 287 288 289 290 292 295 298 299 297 293 294 296 298 300 303 302 299 302 313 325 326 323 324 322 316 315 316 314 311 308 305 306 308 309 311 313 314 314 314 311 309 310 312 315 315 313 313 315 319 320 318 318 319 319 318 318 318 314 309 308 307 309 316 314 288 239 219
300 298 297 297 296 295 293 292 291 289 289 288 288 288 288 287 287 287 287 287 287 288 290 293 297 299 298 297 298 299 299 300 301 301 301 304 311 317 317 314 313 311 309 308 309 310 309 307 305 307 307 307 308 310 311 312 314 312 310 310 312 314 313 311 313 317 318 317 318 320 321 321 321 321 320 316 311 310 311 312 314 316 314 293 245
300 299 298 298 297 296 294 294 293 292 291 290 289 289 288 287 287 286 285 285 286 287 289 292 294 295 295 298 301 303 303 303 302 300 302 305 307 308 307 304 304 305 304 303 304 305 305 304 305 305 305 305 306 307 308 311 313 312 311 312 313 313 313 313 314 316 317 317 319 322 322 322 322 322 320 315 311 310 312 316 316 314 315 315 297
302 301 300 299 297 295 293 293 293 292 291 291 291 290 288 287 286 285 284 285 285 286 288 291 291 292 294 297 301 304 303 301 299 298 300 301 302 303 302 300 301 304 304 302 303 303 301 302 304 304 303 303 304 304 306 309 311 312 312 312 312 313 314 315 315 316 317 318 320 323 324 322 321 322 320 316 313 312 312 315 315 309 305 307 309
304 302 301 300 298 296 294 292 291 290 290 291 291 290 287 285 285 285 284 285 285 286 288 289 289 292 295 298 300 302 299 294 293 295 297 298 300 300 299 299 301 304 304 302 302 301 300 301 303 302 301 303 303 303 304 305 307 310 312 312 310 311 312 313 314 315 317 320 322 324 324 323 321 321 319 317 316 316 314 313 310 307 303 301 303
304 302 300 300 298 296 295 292 290 290 291 291 290 289 287 286 286 285 284 285 285 286 289 289 290 293 296 296 297 297 296 293 294 295 295 296 297 297 296 297 299 301 301 300 300 301 301 300 299 299 301 303 303 303 303 302 303 307 311 310 310 309 309 312 314 315 317 321 324 325 324 323 322 320 319 319 319 318 316 314 313 310 310 308 304
304 301 299 298 297 296 294 293 294 294 293 291 289 288 288 287 287 286 285 285 286 288 289 290 292 295 296 295 295 296 294 292 292 292 291 292 293 293 293 295 297 299 299 300 302 302 301 299 296 296 300 302 302 301 302 301 301 304 308 309 308 309 308 310 313 316 320 323 325 325 325 324 322 319 318 319 320 320 319 318 319 318 316 315 313
303 300 297 296 296 295 294 294 295 295 293 292 291 290 290 289 288 287 286 286 288 289 290 291 293 296 296 297 297 296 293 291 290 289 289 289 290 291 293 295 297 298 300 302 303 302 300 297 295 295 298 301 300 299 298 297 297 300 305 306 305 306 307 308 311 317 323 325 326 325 325 323 322 321 320 319 320 321 320 319 321 322 319 318 318
302 300 297 295 295 296 295 295 295 293 292 293 292 291 291 290 289 288 289 289 289 290 290 291 294 295 296 297 297 294 292 291 290 289 288 289 289 290 292 295 298 299 302 305 305 301 298 296 295 295 298 301 300 298 296 293 292 294 298 301 303 303 304 306 311 318 323 325 326 325 324 323 323 321 320 320 320 321 321 320 321 322 321 321 319
302 299 297 296 297 298 297 297 296 294 293 293 293 292 292 292 291 291 291 291 291 292 291 292 294 294 294 295 294 292 290 291 290 289 288 288 288 290 292 295 298 300 303 306 306 302 299 297 294 294 297 300 302 302 298 293 290 289 289 293 299 302 301 304 310 315 318 322 324 323 321 321 321 321 320 320 320 319 319 319 320 320 319 319 315
301 298 297 297 299 299 299 299 298 297 295 294 293 293 294 293 293 293 293 293 293 293 292 293 294 293 293 293 292 290 289 289 288 288 288 287 288 289 292 295 298 301 304 307 307 304 300 297 294 294 297 300 303 303 301 297 292 287 283 286 294 297 297 301 308 310 313 317 321 321 320 319 319 319 319 318 318 318 318 319 319 317 316 314 313
301 299 299 299 299 299 299 299 299 297 296 295 294 294 295 295 296 295 295 294 294 293 293 293 293 293 292 292 291 289 289 287 286 287 288 288 289 290 292 294 296 299 302 307 308 305 301 298 295 296 298 301 302 303 303 301 296 288 282 284 290 292 295 300 303 305 308 313 315 317 317 317 316 317 318 318 318 318 318 318 318 317 316 315 318
304 303 302 301 300 299 298 299 299 298 297 297 297 296 297 297 297 297 296 295 295 294 293 293 293 293 292 291 290 290 288 286 285 285 287 290 291 292 292 293 294 296 300 305 308 306 303 298 296 297 300 301 302 302 302 302 298 290 283 286 290 292 295 298 299 301 306 309 310 312 316 316 315 316 317 317 316 316 316 316 318 320 319 320 326
307 306 303 302 301 300 299 299 298 297 298 298 298 298 298 298 297 297 297 296 295 295 294 294 293 293 292 292 291 291 289 286 285 285 287 290 292 293 293 292 292 295 299 304 307 306 302 298 297 299 301 302 302 302 303 302 298 290 285 285 288 291 294 297 299 301 303 303 306 311 315 316 315 315 315 315 316 316 316 317 318 321 322 324 331
309 307 305 304 302 300 300 300 298 297 298 299 298 297 298 298 297 297 298 297 296 296 296 295 295 294 293 292 292 291 289 288 286 285 286 288 291 293 292 291 292 296 301 304 305 305 303 300 298 300 302 303 302 302 303 303 299 291 285 282 285 292 297 300 301 300 299 300 306 312 315 315 315 315 315 316 317 318 318 319 320 322 324 328 333
311 310 308 305 304 303 302 301 300 300 300 300 299 298 298 298 298 298 299 299 298 298 298 297 296 294 293 292 291 290 289 289 289 287 286 287 289 291 291 291 293 297 301 303 304 305 304 302 301 302 303 303 303 303 303 303 299 292 285 283 287 293 295 294 293 292 294 299 306 310 312 314 315 316 316 317 318 319 320 320 321 324 328 331 334
Height
857 857 856 855 856 855 854 853 852 851 851 850 849 848 847 846 845 844 842 841 840 839 838 837 836 835 834 833 832 831 829 828 827 826 825 823 822 821 820 819 817 815 814 813 812 811 809 808 806 806 805 804 802 802 801 801 800 799 798 797 796 795 794 793 787 776 774 778 777 775 776 775 773 773 773 772 771 770 769 768 769 769 769 769 769
855 854 853 853 853 853 852 851 850 849 848 847 847 845 844 843 842 841 840 839 838 836 835 834 834 833 832 831 830 828 827 826 825 824 822 821 820 818 817 816 814 812 811 809 808 808 806 804 803 802 802 801 799 799 798 797 797 795 795 794 792 792 791 789 786 778 771 773 775 772 772 773 771 770 771 770 769 769 768 766 766 765 765 765 765
852 851 851 850 850 850 849 848 847 846 845 845 844 843 842 841 840 839 838 837 835 834 833 832 831 830 829 828 827 826 825 824 823 821 820 818 817 815 814 813 811 809 808 806 805 804 803 801 799 799 798 797 796 795 795 794 794 792 791 791 789 788 788 787 784 779 771 769 771 770 769 770 768 767 769 768 766 767 766 764 764 763 762 762 761
849 849 848 848 848 847 847 846 845 844 843 842 841 840 839 838 837 836 835 834 833 832 831 830 829 828 827 825 824 823 822 821 820 819 817 816 814 812 811 809 808 806 804 803 801 801 799 797 796 796 795 794 792 792 792 791 790 790 788 787 786 784 784 783 781 778 773 768 767 768 767 767 766 765 765 765 763 763 762 761 760 759 759 759 758
847 846 846 845 845 844 844 843 842 841 840 839 838 838 837 836 835 834 833 831 830 829 828 827 826 825 824 823 822 820 819 818 817 815 814 813 811 809 807 805 804 802 800 799 798 797 796 794 793 793 792 791 789 788 788 787 787 786 785 784 784 782 781 780 779 777 773 768 765 765 765 764 763 762 762 762 760 759 758 757 757 756 755 755 755
845 844 843 843 842 841 841 840 839 838 837 837 836 835 834 833 832 831 830 829 828 827 826 824 823 822 821 820 819 817 816 815 813 812 810 809 807 805 803 801 800 798 797 796 795 794 793 791 790 790 789 788 786 785 785 784 783 783 782 781 780 780 778 777 776 775 772 768 764 763 762 762 761 759 759 760 758 756 755 754 753 753 752 751 751
842 841 841 840 839 839 838 837 837 836 835 834 833 832 831 830 829 828 827 826 825 824 823 822 821 820 818 817 816 814 813 811 810 808 807 805 803 801 799 797 795 794 793 792 791 790 789 787 786 786 785 784 783 782 781 780 779 778 778 777 776 776 775 774 773 772 770 766 763 760 759 759 758 757 756 757 755 754 753 752 750 749 749 748 747
840 839 838 837 836 836 835 835 834 833 832 831 830 829 828 827 826 825 824 823 822 821 820 819 818 816 815 814 812 811 809 808 806 804 803 801 799 797 795 793 791 790 789 787 787 786 784 783 782 781 781 780 778 778 777 776 775 774 773 773 772 772 771 770 770 768 766 764 760 758 757 756 755 754 753 754 752 750 751 750 747 746 746 745 744
837 836 835 834 834 833 832 832 831 830 829 828 827 826 825 824 823 822 821 820 819 818 817 816 814 813 812 810 809 808 806 804 802 801 799 797 794 792 790 789 788 786 785 783 782 782 780 779 778 777 776 775 774 773 772 772 771 769 768 768 768 767 767 766 765 764 763 760 757 755 754 752 750 751 750 750 749 747 748 747 745 743 743 741 740
834 834 833 832 831 830 829 828 827 827 826 825 824 823 822 821 820 819 818 817 816 815 814 813 811 809 808 806 805 804 802 800 798 797 796 793 791 789 787 786 784 782 781 780 778 777 776 774 773 772 771 771 770 769 768 767 767 765 764 763 763 762 761 760 759 759 758 756 753 752 750 747 746 746 746 745 746 745 745 744 742 740 740 738 736
831 831 830 829 828 827 826 825 824 824 823 822 821 820 819 818 817 816 815 814 813 812 810 809 808 806 804 803 801 799 798 796 794 793 791 789 787 786 784 782 780 779 778 776 774 773 771 770 769 768 767 766 766 765 764 763 762 761 759 759 758 757 755 754 752 752 752 750 748 747 746 742 740 741 742 741 742 742 741 740 739 737 737 736 733
829 828 827 826 825 824 823 822 821 820 819 818 817 816 815 815 813 812 811 810 809 808 807 805 804 802 801 799 797 795 793 792 791 789 787 784 782 781 780 778 776 775 774 772 770 769 767 766 764 763 763 762 761 760 759 758 757 756 754 753 752 751 749 748 746 745 745 743 741 740 740 737 735 736 737 737 737 737 736 736 735 734 733 732 730
825 825 824 823 822 821 820 819 818 817 816 815 814 813 812 811 810 809 808 807 806 804 803 802 800 799 797 795 793 791 789 787 787 785 782 779 778 777 775 774 772 771 770 768 767 765 764 762 760 758 757 757 756 755 754 752 751 750 749 748 746 745 743 742 740 739 739 738 736 734 733 733 731 729 731 733 732 732 731 730 730 730 728 727 725
822 822 821 820 819 818 817 816 815 814 813 812 811 810 809 808 807 806 805 804 802 801 800 798 797 795 794 791 789 787 785 784 782 780 777 775 774 773 771 770 768 767 765 764 763 761 760 758 756 754 753 752 751 750 749 747 746 745 743 742 740 739 738 736 735 733 733 732 730 728 728 728 726 724 726 728 727 725 725 724 724 724 722 720 719
819 818 817 817 816 815 814 813 812 811 810 809 808 806 805 804 803 802 801 800 799 797 796 795 793 792 790 788 786 783 781 780 778 776 773 772 770 769 768 766 764 762 761 759 758 757 755 754 753 751 749 748 746 745 744 743 741 739 738 736 734 733 732 731 730 728 726 725 724 722 722 722 721 719 720 721 721 719 718 718 717 717 716 715 715
816 815 814 814 813 812 811 810 808 807 806 805 804 803 802 800 799 799 797 796 795 793 792 791 789 788 786 784 782 779 777 777 775 772 769 768 767 765 764 762 760 758 756 755 754 752 751 750 749 747 745 743 742 741 739 738 736 734 732 731 729 728 726 724 723 722 720 718 717 715 714 714 714 713 712 713 713 712 712 711 712 713 713 711 710
813 812 811 810 809 809 808 806 805 804 803 802 800 799 798 797 796 795 793 792 791 789 788 787 786 784 782 780 778 775 773 773 771 768 766 764 763 762 760 758 757 755 753 751 749 748 747 746 745 743 741 740 738 736 734 732 731 730 728 726 724 722 720 719 717 715 713 711 710 709 708 707 707 706 705 705 705 706 707 706 706 707 708 706 704
810 809 808 807 806 805 804 803 802 800 799 798 797 795 794 793 792 791 790 788 787 785 784 783 782 780 778 776 775 772 769 769 768 765 762 761 760 758 756 755 753 751 749 747 745 744 742 741 741 739 738 736 734 731 729 727 726 725 723 721 719 717 715 713 711 709 707 705 703 703 702 702 701 700 700 699 700 702 702 700 700 701 701 700 698
806 806 804 804 803 802 801 800 798 797 796 794 793 792 790 789 788 787 786 784 782 781 781 779 778 776 775 772 771 769 766 764 764 762 758 757 756 755 753 751 750 747 745 743 741 740 738 737 736 736 734 732 730 727 724 723 721 720 718 716 714 711 710 709 707 705 703 701 699 698 696 696 695 695 694 694 694 695 695 694 694 695 694 692 692
804 803 801 800 799 798 797 796 795 794 792 791 790 789 787 786 784 783 782 780 779 777 776 775 773 772 770 768 767 765 762 760 760 758 755 753 752 751 749 748 746 743 741 740 738 736 734 733 733 732 731 729 727 724 720 718 716 715 714 712 710 708 706 705 703 701 700 698 696 695 693 691 690 689 689 688 688 687 687 687 688 688 687 685 685
801 799 798 797 796 794 794 793 791 790 789 788 786 785 784 782 781 779 778 776 775 773 772 771 769 767 766 764 762 761 759 757 756 754 752 749 748 746 745 744 742 740 738 736 734 732 731 730 729 728 727 725 723 720 716 713 712 711 709 708 706 705 703 701 699 697 696 694 693 692 690 688 686 685 684 683 682 681 681 680 680 681 680 679 679
797 796 795 793 792 791 790 789 788 787 786 784 783 781 780 779 777 775 774 772 771 769 768 767 765 763 762 760 758 756 755 754 752 751 749 746 744 742 741 740 738 737 735 732 731 729 728 727 726 724 723 720 717 715 712 710 708 707 705 704 702 700 699 698 696 695 693 692 690 688 686 685 683 681 679 678 676 676 675 674 673 673 673 672 674
794 793 791 790 789 788 786 786 785 783 782 781 779 777 776 775 773 771 770 768 766 765 763 762 761 759 757 756 754 752 751 750 749 748 746 744 741 739 736 735 734 733 732 730 728 726 725 723 721 719 717 715 712 710 708 707 705 704 702 700 698 696 695 694 693 693 691 689 687 685 683 681 680 677 675 673 671 670 669 668 667 667 666 666 667
791 789 788 786 785 784 783 782 781 780 778 777 776 774 772 771 769 767 766 765 763 761 759 758 758 756 753 752 750 748 747 746 745 744 743 741 739 736 733 731 730 729 728 726 725 723 721 719 717 715 712 710 708 706 704 702 702 701 699 697 696 694 692 691 690 689 688 686 683 681 678 677 675 673 671 669 667 665 664 663 662 661 661 660 661
787 785 784 783 781 780 779 778 777 776 775 774 772 770 768 767 765 763 762 761 759 757 756 755 754 752 750 748 746 744 743 742 741 740 739 738 736 733 730 728 727 726 725 723 721 720 717 715 713 711 709 707 704 703 701 700 699 698 697 696 694 692 691 689 688 686 684 682 680 677 674 672 671 669 667 665 664 661 659 658 657 656 656 656 656
783 782 781 779 778 777 775 774 773 772 771 770 769 767 765 763 761 759 758 757 755 753 752 751 750 748 746 744 742 740 739 738 737 736 735 733 731 729 727 725 724 722 721 720 718 716 714 712 710 708 707 705 704 702 700 699 698 697 695 694 692 691 689 688 686 684 682 679 677 674 671 669 667 665 663 662 660 657 655 653 652 651 651 652 652
780 778 777 775 775 774 772 770 769 768 767 766 765 763 762 760 758 756 754 753 751 750 749 747 746 744 742 739 738 736 735 734 733 731 730 728 726 724 722 721 720 718 717 715 713 712 710 708 707 705 704 703 702 701 699 697 696 694 693 692 691 689 688 686 684 682 680 677 675 672 669 667 665 662 660 659 656 653 650 649 647 646 646 647 647
777 775 774 772 771 770 768 767 765 764 763 762 761 759 758 757 755 753 751 750 748 746 745 743 741 739 737 735 733 732 731 729 728 727 725 723 721 720 718 717 715 713 712 710 709 707 706 704 703 702 701 700 699 697 696 695 694 692 691 690 688 687 685 684 682 680 678 675 673 670 668 666 663 660 658 655 651 648 645 643 642 640 641 642 642
774 772 770 769 767 766 765 763 762 761 759 758 757 756 754 753 752 749 747 746 744 742 740 738 735 733 732 731 729 728 726 724 724 722 720 718 717 716 715 713 711 709 708 707 705 703 702 700 699 698 698 697 696 694 693 692 691 690 689 688 686 685 683 681 679 677 675 673 671 668 666 663 660 657 655 651 647 643 641 639 637 635 636 637 637
770 768 767 765 764 762 761 760 758 758 756 754 753 751 750 749 748 746 743 742 740 738 736 734 731 729 728 726 725 724 722 720 719 718 716 715 714 712 711 709 708 706 705 704 702 700 698 697 696 696 695 694 693 692 691 690 689 687 686 686 684 683 681 679 677 676 673 671 669 666 664 661 658 655 652 648 643 639 637 635 632 631 631 632 632
767 765 763 762 760 759 758 756 755 754 753 751 750 747 745 744 743 742 741 738 736 734 732 729 728 727 725 723 722 721 719 717 716 714 713 711 710 708 707 705 704 702 701 700 698 696 695 695 694 694 693 692 691 690 689 688 687 685 684 683 682 681 679 677 676 674 671 669 667 664 662 659 656 653 649 646 641 637 633 630 627 626 626 627 628
764 761 760 759 757 756 755 753 752 751 749 748 746 745 742 740 737 736 736 735 733 730 728 726 724 723 722 720 718 717 716 715 713 711 709 708 706 706 704 702 700 699 698 696 694 694 694 693 692 692 691 690 689 689 688 686 685 684 682 681 679 678 677 676 674 672 669 667 664 662 660 657 654 651 648 644 640 635 631 626 623 622 622 622 623
761 758 757 755 754 753 751 750 749 747 745 744 743 741 740 738 734 731 730 730 729 727 725 723 722 720 718 716 714 712 711 710 709 708 706 705 704 703 701 699 698 697 695 693 692 692 691 691 690 690 689 688 688 687 686 685 683 682 681 679 678 676 675 673 672 669 667 665 663 660 658 655 653 649 646 642 638 634 630 625 620 618 618 619 619
757 755 754 752 751 749 748 747 745 744 742 741 739 738 736 735 732 730 727 725 723 722 720 719 719 718 716 714 712 710 708 707 706 704 703 702 701 700 698 696 695 694 693 692 691 690 689 689 688 688 687 687 686 685 684 683 682 680 679 678 676 674 672 671 669 667 665 663 661 659 656 654 651 648 644 640 636 632 628 623 619 616 616 616 617
754 752 750 749 748 746 745 744 742 740 739 738 736 735 733 731 730 728 725 723 720 718 715 714 714 714 713 712 710 709 707 706 704 702 700 699 699 698 695 694 693 692 691 691 690 689 688 687 687 686 685 684 684 683 682 681 680 678 677 675 674 672 670 669 667 665 663 661 659 657 655 652 650 647 643 639 635 631 627 623 619 616 614 614 614
750 748 747 746 745 743 741 740 739 737 736 734 733 731 730 728 726 725 722 721 718 715 713 711 710 710 710 709 708 707 705 704 703 700 698 697 697 696 694 693 692 691 690 689 689 688 687 686 685 684 683 682 682 681 680 679 678 676 675 674 672 670 669 667 665 663 661 659 658 656 653 651 648 645 642 638 634 631 627 623 620 617 614 612 612
747 745 743 742 741 740 738 736 735 734 733 731 730 728 726 724 723 721 719 717 715 713 710 708 707 706 705 705 705 704 702 701 699 697 696 695 694 694 693 692 691 690 689 688 687 686 685 684 683 682 681 680 680 679 678 677 676 674 673 672 670 669 667 665 663 662 660 658 656 654 652 649 646 644 641 637 634 630 627 623 620 617 614 612 611
744 742 741 739 738 737 735 733 732 730 729 728 726 725 723 721 719 718 716 714 712 710 708 706 704 703 702 701 701 700 698 697 695 694 693 692 691 691 690 690 689 688 687 686 685 684 683 682 681 680 679 678 678 677 676 675 674 672 671 670 668 667 665 663 662 660 658 656 654 652 650 647 645 642 640 637 633 630 627 623 620 617 614 612 610
740 739 738 737 735 734 732 730 728 727 726 724 722 721 719 718 716 714 713 711 709 707 705 703 702 700 699 698 698 697 695 694 692 690 689 689 688 688 687 687 686 685 684 684 683 682 681 680 679 678 677 676 675 675 673 672 671 670 669 668 666 665 663 662 660 658 656 654 652 650 648 646 643 640 638 636 633 630 627 624 621 618 615 613 610
737 736 734 733 732 731 729 727 725 724 722 720 719 718 716 714 713 711 709 708 706 704 702 701 698 697 696 696 695 694 693 691 689 688 687 686 685 685 685 684 683 682 681 681 680 679 678 677 676 676 675 674 673 672 671 670 669 668 667 666 665 663 662 660 658 656 655 653 651 649 646 644 641 639 637 634 632 630 627 624 621 619 616 613 610
735 733 731 730 729 727 725 724 722 720 719 717 716 714 712 711 709 708 706 704 702 701 699 697 695 694 694 693 693 692 690 688 687 686 685 684 683 682 682 681 680 680 679 678 677 677 676 675 674 673 672 671 670 670 669 668 667 666 665 664 663 661 660 658 657 655 653 652 650 647 645 643 640 638 635 633 631 628 626 623 620 617 615 612 609
732 730 728 727 726 724 722 720 718 717 715 714 712 711 709 707 706 704 703 701 699 697 696 694 692 691 690 690 689 689 687 685 684 683 682 681 680 679 679 678 677 677 676 675 675 674 673 672 671 671 670 669 668 667 666 665 665 664 663 662 661 659 658 657 655 654 652 650 648 646 644 642 639 637 634 632 629 627 624 621 619 616 613 611 608
729 727 726 724 723 721 720 717 715 714 712 710 708 707 706 704 702 701 699 697 696 694 693 690 689 688 687 686 686 685 683 682 681 680 679 678 677 676 675 675 674 674 673 672 672 671 670 669 669 668 667 666 665 665 664 663 662 661 661 660 658 657 656 655 654 652 651 649 647 645 643 640 638 636 633 631 628 626 623 620 618 615 613 610 608
726 724 723 721 719 718 716 714 713 711 708 707 705 703 702 701 699 697 696 694 693 691 690 687 686 685 683 682 682 681 680 679 678 677 676 675 674 673 672 672 671 671 670 669 669 668 668 667 666 665 664 664 663 662 661 660 660 659 658 657 656 655 654 653 652 651 649 647 645 643 641 639 637 635 632 630 628 625 623 620 617 615 612 610 608
723 722 720 718 717 715 713 711 710 708 705 704 702 700 699 698 696 694 693 691 689 688 686 684 683 682 680 679 679 678 676 675 674 674 673 672 671 670 669 669 668 668 667 667 666 666 665 664 663 663 662 661 660 659 658 658 657 656 656 655 654 653 652 651 650 649 648 646 644 642 640 638 636 634 631 629 627 625 623 620 617 615 612 610 608
721 719 718 716 714 711 709 708 706 704 703 701 699 697 695 694 692 691 690 688 686 685 683 681 680 679 677 676 675 674 673 672 671 670 670 669 668 667 666 666 665 665 664 664 663 663 662 661 661 660 659 658 657 657 656 655 654 653 653 653 652 651 650 649 648 647 646 645 643 641 639 637 635 633 631 629 627 624 622 620 617 615 613 610 607
718 717 715 713 711 709 706 705 703 701 700 698 696 694 692 691 689 688 686 684 683 682 680 678 677 676 674 673 672 671 670 669 668 667 666 666 665 664 664 663 662 662 661 661 660 660 659 659 658 657 657 656 655 654 653 652 651 650 650 650 649 648 648 647 646 645 644 643 642 640 638 636 634 632 630 628 626 624 622 619 617 615 612 610 607
716 714 712 710 708 706 704 702 701 699 697 695 693 691 690 688 686 684 683 681 680 678 677 675 674 672 671 670 669 667 667 665 664 664 663 662 662 662 661 660 660 659 658 658 658 657 657 656 655 655 654 653 652 651 650 649 649 648 647 647 647 646 646 645 644 643 642 641 640 639 637 635 633 631 629 627 625 623 621 619 616 614 611 609 606
713 711 709 707 705 704 702 700 698 696 694 693 691 689 687 685 683 681 680 678 676 675 674 672 671 669 668 667 665 664 663 662 661 661 660 659 659 659 658 657 657 656 656 655 655 654 654 653 653 652 652 651 650 649 648 647 646 645 645 645 644 644 644 643 642 641 640 639 638 637 635 633 631 629 628 626 624 622 620 618 616 614 611 609 606
710 708 706 704 703 701 699 697 696 694 692 690 688 686 684 682 680 678 677 675 673 672 671 669 668 666 665 663 662 661 660 659 658 658 657 657 656 656 655 655 654 654 653 653 652 652 651 651 650 650 649 648 647 647 646 645 644 643 642 642 642 642 641 641 640 639 638 637 636 635 633 632 630 628 626 625 623 621 619 617 615 613 611 609 606
707 705 704 702 700 698 696 695 693 691 689 688 685 683 681 679 677 675 674 672 670 669 667 666 665 663 662 660 659 658 657 656 656 655 654 654 653 653 652 652 651 651 651 650 650 649 649 648 648 647 646 646 645 644 643 642 642 641 640 640 640 640 639 638 637 637 636 635 634 633 631 630 628 627 625 623 622 620 618 616 615 613 611 609 607